Location: Albany
(35.0170°S, 117.8920°E)
Time: 21:14:28
(UTC+08:00)

A-11 Canister half - Pass Details

Date: 31 January 2021
Orbit: 1525 x 1684 km, 47.3° (Epoch: 03 March)

Event Time Altitude Azimuth Distance (km) Brightness Sun altitude
Rises 03:16:44 0° 262° (W) 4,946 - -23.1°
Exits shadow 03:18:42 - 258° (WSW) 4,379 11.1 -22.8°
Reaches altitude 10° 03:20:14 10° 255° (WSW) 3,953 10.8 -22.6°
Maximum altitude 03:29:42 42° 186° (S) 2,251 10.1 -21.2°
Drops below altitude 10° 03:38:57 10° 117° (ESE) 3,864 12.3 -19.7°
Sets 03:42:20 0° 110° (ESE) 4,825 12.9 -19.2°
